[[{"header":{"parameterUnit":"m.s-1","parameterCategory":1,"la1":30.2991,"la2":30.254,"lo1":-89.0895,"lo2":-89.0444,"dy":0.0017,"dx":0.0017,"nx":28,"ny":28,"refTime":"2024-10-08T09:00:00:Z","depth":0,"parameterNumber":2,"parameterNumberName":"U-component_of_WINDS"},"data":[0,0,0,0,0,0,0,0,0,0,0,0,0,0,0,0,0,0,0,0,0,0,0,0,0,0,0,0,0,0,0,0,0,0,0,0,0,0,0,0,0,0,0,0,0,0,0,0,0,0,0,0,0,0,0,0,0,0,-2.7047,-2.7047,0,-2.7054,-2.7054,-2.7054,-2.7054,-2.7054,-2.7054,-2.7053,-2.7062,-2.7062,-2.7063,0,0,0,0,0,0,0,0,0,0,0,0,0,-2.7033,-2.7034,-2.7047,-2.7047,-2.7047,-2.7054,-2.7054,-2.7055,-2.7054,-2.7054,-2.7054,-2.7053,-2.7062,-2.7062,-2.7063,0,0,0,0,0,0,0,0,0,0,0,0,0,-2.704,-2.7034,-2.7047,-2.7048,-2.7048,-2.7054,-2.7054,-2.7055,-2.7054,-2.7054,-2.7054,-2.7053,-2.7062,-2.7062,-2.7063,-2.7069,0,0,-2.7064,-2.7064,0,0,0,0,0,0,0,0,-2.704,-2.704,-2.7047,-2.7048,-2.7048,-2.7053,-2.7053,-2.7059,-2.7054,-2.7052,-2.7053,-2.7053,-2.7059,-2.706,-2.7062,-2.707,-2.707,-2.7064,-2.7065,-2.7065,-2.7065,0,0,0,0,0,0,0,-2.7039,-2.704,-2.705,-2.7047,-2.7048,-2.7048,-2.7049,-2.7054,-2.7056,-2.7052,-2.7052,-2.7053,-2.7059,-2.7061,-2.7062,-2.707,-2.7064,-2.7065,-2.7065,-2.7065,-2.7085,-2.7086,0,0,0,0,0,0,-2.7038,-2.704,-2.705,-2.705,-2.7043,-2.7048,-2.7049,-2.7051,-2.7056,-2.7057,-2.7053,-2.7052,-2.706,-2.7061,-2.7062,-2.7071,-2.7065,-2.7065,-2.7065,-2.7085,-2.7085,-2.7086,0,0,0,0,0,0,-2.7038,-2.7039,-2.7049,-2.7045,-2.7046,-2.7049,-2.7051,-2.7052,-2.7054,-2.7057,-2.7057,-2.7054,-2.706,-2.7061,-2.7068,-2.7071,-2.7065,-2.7066,-2.7085,-2.7085,-2.7085,-2.7088,0,0,0,0,0,0,-2.7038,-2.7039,-2.7041,-2.7045,-2.7046,-2.7054,-2.7052,-2.7052,-2.7054,-2.7054,-2.7058,-2.7059,-2.706,-2.7067,-2.7068,-2.7072,-2.7066,-2.7084,-2.7085,-2.7085,-2.7088,-2.7088,-2.7089,0,0,0,0,0,-2.7037,-2.7041,-2.7041,-2.7042,-2.7049,-2.7054,-2.7055,-2.7056,-2.7055,-2.7057,-2.7059,-2.7059,-2.7071,-2.7068,-2.7069,-2.7073,-2.7084,-2.7085,-2.7085,-2.7087,-2.7088,-2.7089,0,0,0,0,0,0,-2.7038,-2.7042,-2.7042,-2.7047,-2.7051,-2.7054,-2.7057,-2.7057,-2.7061,-2.7061,-2.7062,-2.7063,-2.707,-2.7072,-2.7069,-2.708,-2.7077,-2.7078,-2.7078,-2.7079,-2.708,-2.7079,-2.7067,0,0,0,0,0,-2.7039,-2.7042,-2.7046,-2.7051,-2.7052,-2.7055,-2.7057,-2.7058,-2.7061,-2.7062,-2.7065,-2.7069,-2.7074,-2.7076,-2.7081,-2.7088,-2.7089,-2.7091,-2.7092,-2.7093,-2.7093,-2.7098,-2.71,-2.7087,-2.7087,-2.7087,0,0,-2.7041,-2.7043,-2.7045,-2.7051,-2.7053,-2.7058,-2.7056,-2.706,-2.7063,-2.7063,-2.7069,-2.7072,-2.7076,-2.7083,-2.7086,-2.7085,-2.7097,-2.7093,-2.7094,-2.7094,-2.7099,-2.71,-2.7101,-2.7088,-2.7088,-2.7088,0,0,-2.7046,-2.7048,-2.7053,-2.7055,-2.7059,-2.7061,-2.7062,-2.7066,-2.7068,-2.7074,-2.7074,-2.7079,-2.7086,-2.709,-2.7092,-2.7101,-2.7101,-2.7102,-2.7106,-2.7111,-2.7112,-2.7112,-2.7116,-2.7117,-2.7103,-2.7103,-2.7103,0,-2.7048,-2.7054,-2.7055,-2.706,-2.7062,-2.7062,-2.7067,-2.707,-2.7076,-2.7078,-2.7076,-2.7087,-2.709,-2.7098,-2.71,-2.7102,-2.7104,-2.7101,-2.7111,-2.7112,-2.7113,-2.7116,-2.7118,-2.7103,-2.7103,-2.7103,-2.7103,0,-2.7056,-2.706,-2.7063,-2.7069,-2.7072,-2.7077,-2.7079,-2.7082,-2.7083,-2.7085,-2.7092,-2.7096,-2.7102,-2.7104,-2.7104,-2.7113,-2.7112,-2.7111,-2.7108,-2.7114,-2.7118,-2.7119,-2.7103,-2.7103,-2.7103,-2.7103,0,0,-2.7061,-2.7068,-2.7069,-2.7072,-2.7077,-2.708,-2.7086,-2.7091,-2.7094,-2.7098,-2.7103,-2.7111,-2.711,-2.7113,-2.7114,-2.7119,-2.7126,-2.7117,-2.7117,-2.7119,-2.7136,-2.7137,-2.7139,-2.7126,-2.7126,-2.7127,-2.7136,0,-2.7067,-2.7076,-2.7078,-2.7086,-2.7091,-2.7092,-2.7096,-2.7101,-2.7103,-2.7108,-2.7111,-2.7116,-2.7114,-2.7116,-2.7121,-2.7124,-2.7129,-2.7123,-2.7131,-2.7132,-2.713,-2.714,-2.7141,-2.715,-2.7137,-2.7138,-2.7138,0,-2.7075,-2.708,-2.7088,-2.7094,-2.7096,-2.71,-2.7106,-2.711,-2.7115,-2.7117,-2.7121,-2.7122,-2.7129,-2.7126,-2.7135,-2.7131,-2.7135,-2.7137,-2.7138,-2.7138,-2.7135,-2.7142,-2.7152,-2.7154,-2.714,-2.714,-2.7139,0,-2.7079,-2.7087,-2.7094,-2.7096,-2.7102,-2.7105,-2.7108,-2.7113,-2.7117,-2.7122,-2.7124,-2.713,-2.7134,-2.7139,-2.7142,-2.714,-2.7152,-2.7149,-2.7154,-2.7154,-2.7156,-2.7156,-2.7168,-2.7158,-2.7158,-2.7158,-2.7158,0,-2.7086,-2.7091,-2.7095,-2.7099,-2.7106,-2.7108,-2.7115,-2.7118,-2.7122,-2.7127,-2.7129,-2.7134,-2.7137,-2.7143,-2.7146,-2.7154,-2.7155,-2.7157,-2.7158,-2.7157,-2.7157,-2.716,-2.7159,-2.7159,-2.7159,-2.7158,-2.7158,0,-2.7091,-2.7094,-2.7101,-2.7107,-2.7108,-2.7113,-2.7118,-2.7122,-2.7125,-2.7132,-2.7134,-2.7138,-2.7145,-2.7149,-2.7158,-2.716,-2.7169,-2.7169,-2.7167,-2.7167,-2.7172,-2.7172,-2.7187,-2.7189,-2.7177,-2.7177,-2.7177,0,-2.7095,-2.7099,-2.7105,-2.7109,-2.7112,-2.7117,-2.7121,-2.7124,-2.7128,-2.7135,-2.7139,-2.7146,-2.7152,-2.7163,-2.7168,-2.7175,-2.7175,-2.718,-2.7176,-2.7176,-2.7176,-2.7176,-2.7177,-2.7181,-2.7181,-2.7181,-2.7181,0,-2.7102,-2.7104,-2.7109,-2.7115,-2.7119,-2.7124,-2.7129,-2.7132,-2.7136,-2.7141,-2.7148,-2.7153,-2.7162,-2.7169,-2.7177,-2.7181,-2.7182,-2.7182,-2.7184,-2.7183,-2.7182,-2.7184,-2.7169,-2.7182,-2.7182,-2.7182,-2.7182,-2.7182,-2.7107,-2.7111,-2.7117,-2.7123,-2.7127,-2.7132,-2.7136,-2.714,-2.7146,-2.7154,-2.7155,-2.7163,-2.717,-2.718,-2.7184,-2.7191,-2.719,-2.7192,-2.7193,-2.7193,-2.7194,-2.7181,-2.7192,-2.7192,-2.7192,-2.7192,-2.7192,0,-2.7115,-2.7118,-2.7124,-2.7131,-2.7136,-2.7137,-2.7143,-2.7147,-2.7154,-2.7159,-2.7165,-2.7174,-2.7182,-2.7187,-2.7195,-2.72,-2.7201,-2.7202,-2.7202,-2.7203,-2.7194,-2.7192,-2.7201,-2.7201,-2.7201,-2.7201,-2.7201,-2.7201,-2.7119,-2.7127,-2.7129,-2.7139,-2.7143,-2.715,-2.7154,-2.7159,-2.7163,-2.7173,-2.7179,-2.7183,-2.7189,-2.7198,-2.7205,-2.7207,-2.721,-2.7211,-2.7213,-2.7204,-2.7203,-2.7202,-2.7201,-2.7212,-2.7212,-2.7221,-2.7221,-2.7222]},{"header":{"parameterUnit":"m.s-1","parameterCategory":1,"la1":30.2991,"la2":30.254,"lo1":-89.0895,"lo2":-89.0444,"dy":0.0017,"dx":0.0017,"nx":28,"ny":28,"refTime":"2024-10-08T09:00:00:Z","depth":0,"parameterNumber":3,"parameterNumberName":"V-component_of_WINDS"},"data":[0,0,0,0,0,0,0,0,0,0,0,0,0,0,0,0,0,0,0,0,0,0,0,0,0,0,0,0,0,0,0,0,0,0,0,0,0,0,0,0,0,0,0,0,0,0,0,0,0,0,0,0,0,0,0,0,0,0,-3.0454,-3.0454,0,-3.0507,-3.0508,-3.0508,-3.0507,-3.0507,-3.0506,-3.0505,-3.0558,-3.056,-3.0562,0,0,0,0,0,0,0,0,0,0,0,0,0,-3.035,-3.0352,-3.0453,-3.0454,-3.0455,-3.0507,-3.0508,-3.0508,-3.0507,-3.0507,-3.0506,-3.0505,-3.0557,-3.056,-3.0562,0,0,0,0,0,0,0,0,0,0,0,0,0,-3.0398,-3.0352,-3.0453,-3.0461,-3.0462,-3.0507,-3.0508,-3.0509,-3.0508,-3.0507,-3.0506,-3.0505,-3.0557,-3.056,-3.0563,-3.0603,0,0,-3.0572,-3.0573,0,0,0,0,0,0,0,0,-3.0395,-3.0402,-3.0459,-3.046,-3.0462,-3.0499,-3.049,-3.054,-3.0508,-3.049,-3.0505,-3.0504,-3.0539,-3.0544,-3.0556,-3.0606,-3.0608,-3.0572,-3.0574,-3.0576,-3.0576,0,0,0,0,0,0,0,-3.0392,-3.04,-3.0475,-3.046,-3.0462,-3.0461,-3.0467,-3.05,-3.052,-3.0492,-3.0492,-3.0498,-3.054,-3.0553,-3.0557,-3.0609,-3.0572,-3.0575,-3.0577,-3.0578,-3.0697,-3.0698,0,0,0,0,0,0,-3.0387,-3.0397,-3.0473,-3.0476,-3.0425,-3.0464,-3.047,-3.0488,-3.052,-3.0523,-3.0499,-3.0498,-3.0548,-3.0554,-3.0559,-3.0611,-3.0576,-3.0578,-3.058,-3.0696,-3.0697,-3.0699,0,0,0,0,0,0,-3.0385,-3.0394,-3.0471,-3.0437,-3.0446,-3.0467,-3.0487,-3.049,-3.0503,-3.0525,-3.0529,-3.0509,-3.0548,-3.0555,-3.0593,-3.0613,-3.058,-3.0583,-3.0694,-3.0696,-3.0698,-3.0714,0,0,0,0,0,0,-3.0382,-3.0393,-3.0409,-3.0437,-3.0448,-3.0504,-3.0488,-3.0492,-3.0509,-3.0508,-3.0536,-3.0539,-3.0547,-3.0588,-3.0596,-3.0617,-3.0585,-3.0693,-3.0695,-3.0698,-3.0712,-3.0717,-3.072,0,0,0,0,0,-3.0378,-3.041,-3.041,-3.0419,-3.0468,-3.0505,-3.0512,-3.0521,-3.051,-3.0527,-3.0541,-3.0538,-3.0609,-3.0592,-3.0601,-3.0623,-3.0691,-3.0694,-3.0697,-3.071,-3.0716,-3.072,0,0,0,0,0,0,-3.0383,-3.0414,-3.0414,-3.0456,-3.0478,-3.0505,-3.0526,-3.0526,-3.0551,-3.0549,-3.0559,-3.0565,-3.0604,-3.0617,-3.0598,-3.0665,-3.0649,-3.0654,-3.0656,-3.0661,-3.0665,-3.0662,-3.0588,0,0,0,0,0,-3.0389,-3.0417,-3.0442,-3.0476,-3.0488,-3.0505,-3.0521,-3.0527,-3.055,-3.0559,-3.0576,-3.0598,-3.0626,-3.0644,-3.067,-3.0713,-3.0721,-3.0732,-3.0737,-3.074,-3.0745,-3.0771,-3.0778,-3.0708,-3.0708,-3.0708,0,0,-3.0401,-3.0422,-3.0438,-3.0478,-3.0496,-3.0525,-3.0513,-3.0543,-3.0565,-3.0563,-3.0602,-3.0615,-3.064,-3.0682,-3.0701,-3.0694,-3.0765,-3.0744,-3.0746,-3.0749,-3.0775,-3.0782,-3.0787,-3.071,-3.071,-3.071,0,0,-3.0439,-3.0456,-3.0489,-3.0508,-3.0536,-3.0547,-3.0555,-3.0582,-3.0591,-3.063,-3.063,-3.0656,-3.0702,-3.0722,-3.0737,-3.0785,-3.0784,-3.0792,-3.0815,-3.0841,-3.0846,-3.0851,-3.0871,-3.0878,-3.0797,-3.0797,-3.0797,0,-3.0451,-3.0495,-3.0505,-3.0537,-3.0555,-3.0556,-3.059,-3.0607,-3.0641,-3.0654,-3.0645,-3.0706,-3.0722,-3.077,-3.0782,-3.0794,-3.0804,-3.079,-3.0845,-3.085,-3.0855,-3.0874,-3.0881,-3.0798,-3.0798,-3.0798,-3.0797,0,-3.051,-3.0541,-3.0563,-3.0599,-3.0619,-3.0651,-3.0666,-3.0686,-3.069,-3.0702,-3.0743,-3.0763,-3.0795,-3.0806,-3.0809,-3.0855,-3.085,-3.0843,-3.0827,-3.0862,-3.0881,-3.0888,-3.0799,-3.0799,-3.0799,-3.0798,0,0,-3.0553,-3.0595,-3.0603,-3.0621,-3.0652,-3.0676,-3.0708,-3.0741,-3.0759,-3.0782,-3.0811,-3.0851,-3.0846,-3.0864,-3.0869,-3.0891,-3.0931,-3.0882,-3.0882,-3.0893,-3.0986,-3.0994,-3.1002,-3.093,-3.0931,-3.0932,-3.0985,0,-3.0596,-3.0656,-3.0667,-3.0719,-3.0748,-3.075,-3.0779,-3.0802,-3.0814,-3.0841,-3.0854,-3.0884,-3.0873,-3.0884,-3.0906,-3.0922,-3.0951,-3.0917,-3.0958,-3.096,-3.0955,-3.1011,-3.1018,-3.1067,-3.0992,-3.0993,-3.0994,0,-3.0655,-3.0683,-3.0739,-3.0769,-3.0782,-3.0808,-3.084,-3.0865,-3.0891,-3.0899,-3.092,-3.0923,-3.0958,-3.0939,-3.0988,-3.0966,-3.0983,-3.0993,-3.0995,-3.1001,-3.0981,-3.1021,-3.1082,-3.1091,-3.1004,-3.1004,-3.1003,0,-3.0685,-3.0736,-3.0777,-3.0791,-3.0826,-3.0845,-3.086,-3.0885,-3.0905,-3.0932,-3.0946,-3.0976,-3.0993,-3.1017,-3.1028,-3.1013,-3.1078,-3.1059,-3.1086,-3.1086,-3.1102,-3.1101,-3.117,-3.1108,-3.1108,-3.1108,-3.1108,0,-3.0734,-3.0769,-3.0791,-3.0816,-3.0856,-3.0867,-3.0906,-3.092,-3.0943,-3.0972,-3.0974,-3.1,-3.1013,-3.1042,-3.1051,-3.1092,-3.1098,-3.1107,-3.1109,-3.1108,-3.1108,-3.1122,-3.112,-3.111,-3.1109,-3.1109,-3.1108,0,-3.0775,-3.0791,-3.0836,-3.0866,-3.0875,-3.0903,-3.0929,-3.0954,-3.0966,-3.1003,-3.1012,-3.1032,-3.1066,-3.108,-3.112,-3.1127,-3.1175,-3.1173,-3.1167,-3.1168,-3.1196,-3.1195,-3.1278,-3.1291,-3.1218,-3.1219,-3.1219,0,-3.0807,-3.0834,-3.0868,-3.0888,-3.0905,-3.0936,-3.0957,-3.097,-3.0991,-3.1024,-3.1046,-3.108,-3.1109,-3.1163,-3.1181,-3.1213,-3.1214,-3.1241,-3.1219,-3.1218,-3.1219,-3.1218,-3.1222,-3.1246,-3.1247,-3.1248,-3.1248,0,-3.0863,-3.087,-3.09,-3.0934,-3.096,-3.0986,-3.1012,-3.1028,-3.1045,-3.1069,-3.1105,-3.1127,-3.1171,-3.1206,-3.1239,-3.1255,-3.1255,-3.1255,-3.1263,-3.1264,-3.1261,-3.1266,-3.1182,-3.1253,-3.1253,-3.1252,-3.1252,-3.1252,-3.0902,-3.0928,-3.0957,-3.0991,-3.1013,-3.1038,-3.1064,-3.108,-3.1111,-3.1149,-3.1153,-3.1192,-3.1219,-3.1265,-3.1282,-3.1313,-3.1306,-3.1317,-3.1321,-3.1325,-3.1328,-3.1254,-3.1318,-3.1318,-3.1318,-3.1318,-3.1318,0,-3.0961,-3.098,-3.1012,-3.105,-3.1077,-3.1075,-3.1105,-3.1128,-3.1163,-3.1188,-3.1217,-3.126,-3.1294,-3.1315,-3.135,-3.1371,-3.1372,-3.138,-3.138,-3.1384,-3.1331,-3.1321,-3.1379,-3.1379,-3.1379,-3.1379,-3.1379,-3.1379,-3.0995,-3.104,-3.105,-3.1106,-3.1124,-3.1164,-3.1181,-3.1205,-3.1226,-3.1274,-3.1303,-3.1317,-3.1341,-3.1378,-3.141,-3.1415,-3.1429,-3.1438,-3.1444,-3.1394,-3.1388,-3.1382,-3.1373,-3.144,-3.1441,-3.1495,-3.1496,-3.1496]}]]